This is the latest recevied weather packets stored in our database for station/object N8AMF. If no packets are shown the sender has not sent any weather packets the latest 10 day(s).
| Time | Temp. | Humidity | Pressure | Rain* | Wind** | Luminosity | Snow |
|---|---|---|---|---|---|---|---|
| 1777131363 | 10° C | 99% | 1011 hPa | 0 mm | - | 190 W/m² | - |
| 1777131063 | 10° C | 99% | 1010.9 hPa | 0 mm | - | 238 W/m² | - |
| 1777130759 | 10° C | 99% | 1010.9 hPa | 0 mm | - | 324 W/m² | - |
| 1777130455 | 9.44° C | 99% | 1010.6 hPa | 0 mm | - | 248 W/m² | - |
| 1777130151 | 9.44° C | 99% | 1010.9 hPa | 0 mm | - | 243 W/m² | - |
| 1777129847 | 9.44° C | 99% | 1010.5 hPa | 0 mm | - | 227 W/m² | - |
| 1777129542 | 9.44° C | 99% | 1010.7 hPa | 0 mm | - | 236 W/m² | - |
| 1777129242 | 8.89° C | 99% | 1010.6 hPa | 0 mm | - | 247 W/m² | - |
| 1777128938 | 8.89° C | 99% | 1010.6 hPa | 0 mm | - | 257 W/m² | - |
| 1777128634 | 8.89° C | 99% | 1010.6 hPa | 0 mm | - | 208 W/m² | - |
| 1777128333 | 8.89° C | 99% | 1010.4 hPa | 0 mm | - | 212 W/m² | - |
| 1777128029 | 8.89° C | 99% | 1010.5 hPa | 0 mm | - | 173 W/m² | - |
| 1777127727 | 8.89° C | 99% | 1010.3 hPa | 0 mm | - | 203 W/m² | - |
| 1777127423 | 8.33° C | 99% | 1010.4 hPa | 0 mm | - | 181 W/m² | - |
| 1777127119 | 8.33° C | 99% | 1010.1 hPa | 0 mm | - | 183 W/m² | - |
| 1777126815 | 8.89° C | 99% | 1010.4 hPa | 0 mm | - | 146 W/m² | - |
| 1777126512 | 8.89° C | 99% | 1010.3 hPa | 0 mm | - | 135 W/m² | - |
| 1777126207 | 8.89° C | 99% | 1010.2 hPa | 0 mm | - | 127 W/m² | - |
| 1777125903 | 8.89° C | 99% | 1010.2 hPa | 0 mm | - | 137 W/m² | - |
| 1777125600 | 8.89° C | 99% | 1010.1 hPa | 0 mm | - | 112 W/m² | - |
| 1777125295 | 9.44° C | 99% | 1010.1 hPa | 0 mm | - | 131 W/m² | - |
| 1777124995 | 9.44° C | 99% | 1010 hPa | 0 mm | - | 165 W/m² | - |
| 1777124693 | 9.44° C | 99% | 1009.7 hPa | 0 mm | - | 137 W/m² | - |
| 1777124388 | 9.44° C | 99% | 1009.6 hPa | 0 mm | - | 161 W/m² | - |
| 1777124085 | 8.89° C | 99% | 1009.6 hPa | 0 mm | - | 124 W/m² | - |
* Rain latest hour (hover to see other rain measurements)
** Current wind speed in m/s (hover to see current wind gust speed)